Change the Weather History Date:

Sunday, April 7, 2013

  Actual Average (CYGV) Record (CYGV)
Temperature  
Mean Temperature 20 °F -  
Max Temperature 30 °F 33 °F 44 °F (2008)
Min Temperature 11 °F 19 °F 6 °F (2003)
Degree Days  
Heating Degree Days 44    
Moisture  
Dew Point 10 °F    
Average Humidity 56    
Maximum Humidity 97    
Minimum Humidity 28    
Precipitation  
Precipitation 0.00 in - - ()
Sea Level Pressure  
Sea Level Pressure 30.13 in    
Wind  
Wind Speed 5 mph ()    
Max Wind Speed 8 mph    
Max Gust Speed -    
Averages and records for this station are not official NWS values.
T = Trace of Precipitation, MM = Missing Value Source: Averaged Metar Reports

Daily Weather History Graph

Daily Weather History Graph

Search for Another Location

Airport or City:

Trip Planner

Search our weather history database for the weather conditions in past years. The results will help you decide how hot, cold, wet, or windy it might be!

Date:

Astronomy

Apr. 07, 2013 Rise Set
Actual Time 5:39 AM EDT 6:58 PM EDT
Civil Twilight 5:06 AM EDT 7:32 PM EDT
Nautical Twilight 4:25 AM EDT 8:13 PM EDT
Astronomical Twilight 3:41 AM EDT 8:57 PM EDT
Moon 4:10 AM EDT (4/7) 4:13 PM EDT (4/7)
Length of Visible Light 14h 26m
Length of Day
13h 19m
Waning Crescent, 8% of the Moon is Illuminated
Apr 7
Waning Crescent
Apr 10
New
Apr 18
First Quarter
Apr 25
Full
May 2
Last Quarter

Hourly Weather History & Observations

Time (EDT) Temp. Windchill Dew Point Humidity Pressure Visibility Wind Dir Wind Speed Gust Speed Precip Events Conditions
12:00 AM 21.4 °F 11.9 °F 3.6 °F 46% 30.06 in - NW 8.1 mph - N/A   Unknown
1:00 AM 19.8 °F 9.9 °F 3.4 °F 49% 30.09 in - NW 8.1 mph - N/A   Unknown
2:00 AM 18 °F - 3 °F 38% 30.11 in - NW 5.8 mph - -  
2:00 AM 17.6 °F 9.3 °F 3.4 °F 54% 30.11 in - NW 5.8 mph - N/A   Unknown
3:00 AM 14.4 °F 6.9 °F 3.6 °F 62% 30.15 in - West 4.6 mph - N/A   Unknown
4:00 AM 14.7 °F 5.9 °F 2.7 °F 59% 30.18 in - WNW 5.8 mph - N/A   Unknown
5:00 AM 11.3 °F 5.1 °F 3.6 °F 71% 30.20 in - West 3.5 mph - N/A   Unknown
6:00 AM 12.0 °F 4.1 °F 2.7 °F 66% 30.20 in - NW 4.6 mph - N/A   Unknown
7:00 AM 18.7 °F 13.5 °F 4.1 °F 53% 30.23 in - West 3.5 mph - N/A   Unknown
8:00 AM 22 °F - 3 °F 28% 30.24 in - West 4.6 mph - -  
8:00 AM 21.6 °F 15.3 °F 2.7 °F 44% 30.24 in - West 4.6 mph - N/A   Unknown
9:00 AM 24.8 °F 20.5 °F 4.6 °F 42% 30.23 in - West 3.5 mph - N/A   Unknown
10:00 AM 26.2 °F 18.6 °F 6.8 °F 44% 30.21 in - WSW 6.9 mph - N/A   Unknown
11:00 AM 27.7 °F 19.6 °F 10.2 °F 48% 30.22 in - WSW 8.1 mph - N/A   Unknown
12:00 PM 28.4 °F 22.2 °F 11.1 °F 48% 30.18 in - WSW 5.8 mph - N/A   Unknown
1:00 PM 28.4 °F 21.2 °F 12.0 °F 50% 30.16 in - WSW 6.9 mph - N/A   Unknown
2:00 PM 30 °F - 14 °F 38% 30.14 in - WSW 6.9 mph - -  
2:00 PM 29.7 °F 22.8 °F 14.2 °F 53% 30.14 in - WSW 6.9 mph - N/A   Unknown
3:00 PM 28.6 °F 21.5 °F 14.0 °F 54% 30.12 in - WSW 6.9 mph - N/A   Unknown
4:00 PM 27.9 °F 21.5 °F 14.7 °F 58% 30.11 in - WSW 5.8 mph - N/A   Unknown
5:00 PM 26.8 °F 22.8 °F 14.0 °F 59% 30.08 in - SW 3.5 mph - N/A   Unknown
6:00 PM 27.5 °F - 12.9 °F 54% 30.06 in - ENE 2.3 mph - N/A   Unknown
7:00 PM 27.9 °F 24.0 °F 14.4 °F 57% 30.04 in - ENE 3.5 mph - N/A   Unknown
8:00 PM 28 °F - 19 °F 57% 30.06 in - ESE 3.5 mph - -  
8:00 PM 28.2 °F 24.4 °F 18.7 °F 67% 30.06 in - ESE 3.5 mph - N/A   Unknown
9:00 PM 28.9 °F 21.9 °F 23.2 °F 79% 30.04 in - SSE 6.9 mph - N/A   Unknown
10:00 PM 27.7 °F 20.4 °F 26.6 °F 96% 30.01 in - SE 6.9 mph - N/A   Unknown
11:00 PM 28.0 °F 22.8 °F 27.3 °F 97% 29.99 in - SSE 4.6 mph - N/A   Unknown